Regional Weather Roundup
Issued by NWS

Home | Current Version | Previous Version | Text Only | Print | Product List | Glossary On
Versions: 1 2 3 4 5 6 7 8 9 10 11 12 13 14 15 16 17 18 19 20 21 22 23 24 25 26 27 28 29 30 31 32 33 34 35 36 37 38 39 40 41 42 43 44 45 46
000
ASUS45 KBOU 252010
RWRCO

WEATHER ROUNDUP FOR COLORADO
NATIONAL WEATHER SERVICE PUEBLO CO
200 PM MDT WED APR 25 2018

NOTE: "FAIR" INDICATES FEW OR NO CLOUDS BELOW 12000 FEET WITH NO
SIGNIFICANT WEATHER AND/OR OBSTRUCTIONS TO VISIBILITY.

COZ001>005-013-030-031-252100-
...NORTHWEST COLORADO...

CITY           SKY/WX    TMP DP  RH WIND       PRES   REMARKS
CRAIG          SUNNY     58  28  32 N6        30.25F
HAYDEN         SUNNY     54  19  25 N6        30.27F
MEEKER         SUNNY     61  15  16 VRB3      30.23F
RABBIT EARS PA NOT AVBL
STEAMBOAT SPGS FAIR      55  13  19 W7        30.26F
WALDEN         FAIR      54   1  12 CALM      30.28F
$$

COZ006>008-011-252100-
...WEST CENTRAL VALLEYS...

CITY           SKY/WX    TMP DP  RH WIND       PRES   REMARKS
GRAND JUNCTION SUNNY     65  16  15 CALM      30.20F
MONTROSE       SUNNY     61  18  18 VRB5      30.23F
EAGLE          SUNNY     59  14  17 VRB3      30.25F
RIFLE          SUNNY     62   7  11 CALM      30.20F
DELTA          NOT AVBL
NUCLA          FAIR      68   0   6 N6        30.23F
$$

COZ017>023-064>068-252100-
...SOUTHWEST COLORADO...

CITY           SKY/WX    TMP DP  RH WIND       PRES   REMARKS
DURANGO        SUNNY     68  15  13 W9        30.20F
CORTEZ         SUNNY     70   0   6 MISG      30.19F
PAGOSA SPRINGS FAIR      64  -7   5 SE7       30.25F
TELLURIDE      SUNNY     59   7  12 W13G20    30.31F
WOLF CREEK PAS SUNNY     41   1  19 S5        30.48F
$$

COZ009-010-012-014-032>034-037-058>063-252100-
...CENTRAL COLORADO...

CITY           SKY/WX    TMP DP  RH WIND       PRES   REMARKS
ASPEN          SUNNY     61  -2   8 NE7       30.24F
BUENA VISTA    FAIR      57   3  11 E6        30.26F
COPPER MTN     NOT AVBL
BERTHOUD PASS  FAIR      30  19  64 NW16G22   30.43F WCI  19
COTTONWOOD PAS SUNNY     57  12  17 SE7       30.34F
GUNNISON       SUNNY     59 -10   6 NE7       30.25F
KREMMLING      SUNNY     63   9  12 E6        30.27F
LEADVILLE      SUNNY     50   1  13 NW7       30.31F
MONARCH PASS   SUNNY     43   0  16 W15       30.53F
SALIDA         FAIR      61  -3   7 SE7       30.32F
SUNLIGHT       SUNNY     43  12  28 CALM      30.43F
WILKERSON PASS SUNNY     41   9  26 NW5       30.43F
$$

COZ069>075-252100-
...SAN LUIS VALLEY/SANGRE DE CRISTO MOUNTAINS...

CITY           SKY/WX    TMP DP  RH WIND       PRES   REMARKS
ALAMOSA        SUNNY     58  -2   8 SW6       30.27F
DEL NORTE      FAIR      59  -9   6 E6        30.28F
LA VETA PASS   SUNNY     46  23  39 NE7       30.48F
SAGUACHE       NOT AVBL
$$

COZ035-036-038>040-252100-
...NORTHERN COLORADO FRONT RANGE...

CITY           SKY/WX    TMP DP  RH WIND       PRES   REMARKS
DENVER INTL AP SUNNY     60  24  25 S5        30.19F
DMNS CITY PARK NOT AVBL
AURORA         MOSUNNY   60  21  22 S3        30.20F
FRONT RANGE AP SUNNY     59  23  25 SW6       30.20F
ERIE MUNI ARPT FAIR      61  26  26 S5        30.23F
BOULDER MUN AP FAIR      59  27  29 E6        30.18F
CENTENNIAL     SUNNY     59  25  27 N3        30.20F
BROOMFIELD     SUNNY     59  25  27 SE7       30.20F
LOVELAND       SUNNY     61  27  27 S9        30.18F
LONGMONT       FAIR      64  28  26 SE6       30.19F
$$

COZ041-046-047-076>085-087-088-252100-
...PIKES PEAK/PALMER DIVIDE AND SOUTHERN FOOTHILLS...

CITY           SKY/WX    TMP DP  RH WIND       PRES   REMARKS
COLO. SPRINGS  MOSUNNY   56  28  34 SW7       30.24F
A. F. ACADEMY  SUNNY     58  27  30 S5        30.22F
SCHRIEVER AFB  NOT AVBL
CHEYENNE MTN   NOT AVBL
ELLICOTT         N/A    N/A N/A N/A NW8       30.22F
FALCON         FAIR      60  20  21 NE5       30.25F
FORT CARSON    SUNNY     58  29  33 CALM      30.22F
LIMON          SUNNY     57  24  28 N8G17     30.21F
MONUMENT HILL  SUNNY     54  14  20 W7        30.26F
CANON CITY     FAIR      61  32  33 W7        30.20F
WALSENBURG     FAIR      59  30  33 E3        30.24F
TRINIDAD       SUNNY     59  21  23 VRB3      30.24F
$$

COZ042>045-048>051-090-091-252100-
...NORTHEAST COLORADO...

CITY           SKY/WX    TMP DP  RH WIND       PRES   REMARKS
GREELEY ARPT   SUNNY     59  26  28 SW7       30.19F
AKRON          SUNNY     56  30  37 W8        30.19F
BURLINGTON     SUNNY     55  31  39 MISG      30.21F HAZE
WRAY           FAIR      57  30  35 W6        30.19F
YUMA           NOT AVBL
STERLING       NOT AVBL
HOLYOKE        FAIR      61  32  33 W9        30.19F
FORT MORGAN    FAIR      60  19  20 W6        30.19F
$$

COZ086-089-092>099-252100-
...SOUTHEAST COLORADO...

CITY           SKY/WX    TMP DP  RH WIND       PRES   REMARKS
PUEBLO         SUNNY     59  28  30 VRB3      30.21F
LA JUNTA       SUNNY     56  35  45 SW5       30.23F
LAMAR          SUNNY     59  30  33 NW8       30.20F
SPRINGFIELD      N/A     56  30  37 N17G25    30.22F
$$





USA.gov is the U.S. government's official web portal to all federal, state and local government web resources and services.